Flag for France Weather past 2 weeks in Strasbourg, France

Now
55 °F

Mostly cloudy.


Feels Like: 55 °F
Forecast: 43 / 62 °F
Wind: 2 mph from Northwest

Location: Strasbourg Airport

Current Time: Oct 25, 2014 at 8:18:00 PM

Latest Report: Oct 25, 2014 at 7:30 PM


Visibility: N/A

Pressure: 30.18 "Hg

Humidity: 82%

Dew point: 50 °F

Location of StrasbourgLocation

Historic Weather in Strasbourg — Graph

°F

Strasbourg temperature yesterday

Maximum temperature yesterday: 59 °F (at 3:00 PM)
Minimum temperature yesterday: 36 °F (at 8:00 AM)
Average temperature yesterday: 46 °F

Past Weeks' High & Low Weather Summary

 TemperatureHumidityPressure
High79 °F (Oct 19, 3:00 PM)100% (Oct 10, 10:00 PM)30.30 "Hg (Oct 10, 10:00 PM)
Low36 °F (Oct 24, 8:00 AM)50% (Oct 14, 2:30 PM)29.68 "Hg (Oct 21, 5:00 PM)
Average57 °F85%29.99 "Hg
* Reported Oct 10 7:00 PM — Oct 25 7:00 PM, Strasbourg, Weather by CustomWeather, © 2014

Note: Actual official high and low records may vary slightly from our data, if they occured in-between our weather recording intervals... More about our weather records

Advertising

Strasbourg weather history for previous 24 hours

 ConditionsComfort  
Time TempWeatherWind HumidityBarometerVisibility
7:00 PM
Oct 25
57 °FMostly cloudy.1 mph72%30.18 "HgN/A
6:35 PM57 °FMostly cloudy.2 mph72%30.15 "HgN/A
6:00 PM59 °FPartly sunny.3 mph68%30.15 "HgN/A
5:30 PM59 °FMostly cloudy.3 mph68%30.15 "HgN/A
5:00 PM61 °FMostly cloudy.3 mph63%30.15 "HgN/A
4:30 PM61 °FMostly cloudy.2 mph63%30.15 "HgN/A
4:00 PM61 °FMostly cloudy.2 mph63%30.15 "HgN/A
3:30 PM61 °FOvercast.1 mph63%30.15 "HgN/A
3:00 PM63 °FBroken clouds.2 mph59%30.12 "HgN/A
2:30 PM59 °FMostly cloudy.1 mph68%30.15 "HgN/A
2:00 PM59 °FMostly cloudy.2 mph63%30.15 "HgN/A
1:30 PM59 °FMore clouds than sun.2 mph63%30.15 "HgN/A
1:00 PM57 °FMostly cloudy.3 mph67%30.15 "HgN/A
12:30 PM57 °FMostly cloudy.5 mph72%30.15 "HgN/A
12:00 PM55 °FMostly cloudy.3 mph77%30.15 "HgN/A
11:30 AM54 °FOvercast.No wind82%30.15 "HgN/A
11:00 AM52 °FOvercast.2 mph82%30.15 "HgN/A
10:30 AM52 °FPartly sunny.2 mph88%30.15 "HgN/A
10:00 AM50 °FBroken clouds.2 mph94%30.12 "HgN/A
9:30 AM50 °FMostly cloudy.2 mph94%30.12 "HgN/A
9:00 AM48 °FMostly cloudy.2 mph100%30.12 "HgN/A
8:30 AM48 °FClear.3 mph94%30.12 "HgN/A
8:00 AM48 °FPartly cloudy.2 mph94%30.12 "HgN/A
7:30 AM48 °FOvercast.5 mph94%30.09 "HgN/A
7:00 AM48 °FMostly cloudy.2 mph94%30.09 "HgN/A
6:30 AM48 °FLight rain. Overcast.No wind94%30.09 "HgN/A
6:00 AM48 °FMostly cloudy.2 mph94%30.09 "HgN/A
5:30 AM48 °FOvercast.1 mph94%30.09 "HgN/A
5:00 AM48 °FOvercast.2 mph94%30.09 "HgN/A
4:30 AM48 °FPassing clouds.No wind94%30.09 "HgN/A
4:00 AM48 °FPartly cloudy.2 mph94%30.09 "HgN/A
3:30 AM48 °FClear.2 mph94%30.09 "HgN/A
3:00 AM48 °FClear.2 mph94%30.09 "HgN/A
2:30 AM48 °FClear.2 mph94%30.09 "HgN/A
2:00 AM48 °FLight rain. Overcast.3 mph94%30.09 "HgN/A
1:30 AM48 °FClear.3 mph94%30.09 "HgN/A
1:00 AM48 °FClear.2 mph94%30.09 "HgN/A
12:30 AM48 °FClear.2 mph94%30.09 "HgN/A
12:00 AM50 °FClear.2 mph88%30.09 "HgN/A
11:30 PM
Oct 24
50 °FClear.3 mph88%30.09 "HgN/A
11:00 PM50 °FClear.5 mph88%30.09 "HgN/A
10:30 PM50 °FClear.5 mph88%30.09 "HgN/A
10:00 PM50 °FClear.3 mph88%30.12 "HgN/A
9:30 PM52 °FLow clouds.3 mph82%30.12 "HgN/A
9:00 PM50 °FClear.3 mph82%30.12 "HgN/A
8:30 PM50 °FClear.3 mph82%30.12 "HgN/A
8:00 PM50 °FClear.2 mph82%30.12 "HgN/A
Weather by CustomWeather, © 2014

See weather overviewHow to use our weather pages